Starlink 31317

operational
NORAD ID: 58931 Int'l Des: 2024-027 Owner: SPXS Country: US Constellation: starlink
LEOCIRCULAR

Starlink 31317について

説明を読み込み中...

リアルタイム位置

3D地球を読み込み中...

次回通過

高度履歴

Altitude vs Time

uPlot chart will show altitude changes over time

軌道要素

1 58931U 24027A 25307.65657838 .00001359 00000-0 58035-4 0 9999
2 58931 53.1584 174.9243 0001900 86.4912 273.6306 15.30195739 97875
Epoch: Nov 3, 2025 • Age: 13 hours

現在のステータス

高度 479.9 km
速度 7.63 km/s
衛星直下点 50.59°N, 124.5°E
打ち上げ日 Feb 10, 2024
運用期間 1.7 years
タイプ internet

技術仕様

分類 Payload
質量 730.00 kg
乾燥質量 700.00 kg
総質量 730.00 kg
長さ 0.30 m
直径 4.10 m
スパン 29.00 m
形状 Box + pan
製造者 SPXS
バスタイプ Starlink V2M
フェーズステータス In Orbit
所有者/国 SPXS/US

大規模コンステレーション

Loading constellations...